Overview Statistics Trail Chart Weather Telemetry Raw packets
 

This is the latest recevied weather packets stored in our database for station/object WX5RP. If no packets are shown the sender has not sent any weather packets the latest 10 day(s).

<< 43 44 45 46 47 48 49 >>
Time Temp. Humidity Pressure Rain* Wind** Luminosity Snow
1777326317 12.78° C 32% 1015.5 hPa 0 mm - 268 W/m² -
1777325716 12.78° C 33% 1014.9 hPa 0 mm - 309 W/m² -
1777325116 12.78° C 34% 1015.2 hPa 0 mm - 943 W/m² -
1777324516 12.78° C 34% 1015.2 hPa 0 mm - 400 W/m² -
1777323916 12.22° C 36% 1015 hPa 0 mm - 464 W/m² -
1777323316 11.67° C 35% 1015.6 hPa 0 mm - 638 W/m² -
1777322716 11.67° C 37% 1015.6 hPa 0 mm - 483 W/m² -
1777322116 12.22° C 35% 1015.3 hPa 0 mm - 675 W/m² -
1777321516 11.11° C 40% 1015.6 hPa 0 mm - 536 W/m² -
1777320916 11.11° C 42% 1015.6 hPa 0 mm - 1073 W/m² -
1777320315 11.67° C 36% 1015.6 hPa 0 mm - 659 W/m² -
1777319716 11.67° C 36% 1015.6 hPa 0 mm - 1002 W/m² -
1777319116 11.11° C 36% 1015.6 hPa 0 mm - 550 W/m² -
1777318516 11.11° C 35% 1015.6 hPa 0 mm - 453 W/m² -
1777317916 11.11° C 36% 1015.6 hPa 0 mm - 327 W/m² -
1777317315 11.11° C 35% 1015.6 hPa 0 mm - 302 W/m² -
1777316715 11.67° C 34% 1015.4 hPa 0 mm - 447 W/m² -
1777316115 11.11° C 33% 1015.5 hPa 0 mm - 499 W/m² -
1777315516 11.67° C 33% 1015.5 hPa 0 mm - 572 W/m² -
1777314917 11.11° C 37% 1015.7 hPa 0 mm - 601 W/m² -
1777314317 11.67° C 35% 1016.3 hPa 0 mm - 1167 W/m² -
1777313717 10.56° C 38% 1015.7 hPa 0 mm - 969 W/m² -
1777313117 10° C 39% 1015.7 hPa 0 mm - 464 W/m² -
1777312517 10.56° C 39% 1015.7 hPa 0 mm - 964 W/m² -
1777311917 10.56° C 37% 1015.7 hPa 0 mm - 348 W/m² -

* Rain latest hour (hover to see other rain measurements)
** Current wind speed in m/s (hover to see current wind gust speed)